Location: Ottawa
(45.4167°N, 75.7000°W)
Time: 07:32:18
(UTC-04:00)

Vanguard 3 - Visible Passes

Search period start: 23 April 2018 00:00
Search period end: 03 May 2018 00:00
Orbit: 508 x 3264 km, 33.3° (Epoch: 22 April)

Date Brightness Start Highest point End Pass type
(mag) Time Alt. Az. Time Alt. Az. Time Alt. Az.
25 Apr 8.5 21:26:40 10° S 21:26:54 10° S 21:26:54 10° S visible
27 Apr 8.2 21:10:24 10° SSW 21:12:02 12° S 21:12:42 12° SSE visible
28 Apr 8.6 22:07:25 10° SW 22:07:49 11° SSW 22:07:49 11° SSW visible
29 Apr 8.3 20:54:11 10° SSW 20:56:20 14° S 20:58:18 10° SE visible
30 Apr 8.3 21:51:46 10° SW 21:53:21 14° SSW 21:53:21 14° SSW visible
01 May 8.3 20:37:59 10° SW 20:40:39 16° S 20:43:00 10° SE visible
02 May 8.2 21:36:01 10° SW 21:38:06 14° S 21:38:47 13° S visible
